This is the latest recevied weather packets stored in our database for station/object W8UFO-13. If no packets are shown the sender has not sent any weather packets the latest 10 day(s).
| Time | Temp. | Humidity | Pressure | Rain* | Wind** | Luminosity | Snow |
|---|---|---|---|---|---|---|---|
| 1777729456 | 13.33° C | 53% | 1017.2 hPa | 0 mm | - | - | - |
| 1777729156 | 12.78° C | 56% | 1017.2 hPa | 0 mm | - | - | - |
| 1777728856 | 12.78° C | 57% | 1017.1 hPa | 0 mm | - | - | - |
| 1777728556 | 12.78° C | 56% | 1017.2 hPa | 0 mm | - | - | - |
| 1777728256 | 13.33° C | 56% | 1017.2 hPa | 0 mm | - | - | - |
| 1777727956 | 13.33° C | 56% | 1017.2 hPa | 0 mm | - | - | - |
| 1777727656 | 13.33° C | 56% | 1017.3 hPa | 0 mm | - | - | - |
| 1777727356 | 13.33° C | 59% | 1017.2 hPa | 0 mm | - | - | - |
| 1777727056 | 12.78° C | 60% | 1017.1 hPa | 0 mm | - | - | - |
| 1777726756 | 12.78° C | 62% | 1017.1 hPa | 0 mm | - | - | - |
| 1777726456 | 12.78° C | 64% | 1017 hPa | 0 mm | - | - | - |
| 1777726156 | 12.22° C | 61% | 1017.1 hPa | 0 mm | - | - | - |
| 1777725856 | 11.67° C | 65% | 1016.9 hPa | 0 mm | - | - | - |
| 1777725556 | 11.11° C | 66% | 1016.8 hPa | 0 mm | - | - | - |
| 1777725256 | 11.11° C | 70% | 1017 hPa | 0 mm | - | - | - |
| 1777724956 | 10.56° C | 72% | 1016.9 hPa | 0 mm | - | - | - |
| 1777724656 | 10.56° C | 71% | 1017 hPa | 0 mm | - | - | - |
| 1777724356 | 10.56° C | 71% | 1017.1 hPa | 0 mm | - | - | - |
| 1777724056 | 10.56° C | 72% | 1017 hPa | 0 mm | - | - | - |
| 1777723756 | 10.56° C | 72% | 1017 hPa | 0 mm | - | - | - |
| 1777723456 | 10.56° C | 73% | 1017.2 hPa | 0 mm | - | - | - |
| 1777723156 | 10.56° C | 71% | 1017 hPa | 0 mm | - | - | - |
| 1777722856 | 10° C | 72% | 1016.8 hPa | 0 mm | - | - | - |
| 1777722556 | 10° C | 73% | 1016.9 hPa | 0 mm | - | - | - |
| 1777722256 | 10° C | 72% | 1016.7 hPa | 0 mm | - | - | - |
* Rain latest hour (hover to see other rain measurements)
** Current wind speed in m/s (hover to see current wind gust speed)